Home > Weather > Mutsamudu > Past weeks

Flag for Comoros Weather for the Past 2 Weeks in Mutsamudu, Comoros

Now
82 °F

Passing clouds.


Feels Like: 88 °F
Forecast: 78 / 81 °F
Wind: 16 mph from South

Location: Dzaoudzi / Pamanzi Mayotte

Current Time: May 3, 2016 at 6:54:49 AM

Latest Report: May 3, 2016 at 6:00 AM


Visibility: N/A

Pressure: 29.89 "Hg

Humidity: 74%

Dew Point: 73 °F

Location of MutsamuduLocation

Historic Weather in Mutsamudu — Graph

°F

Mutsamudu Temperature Yesterday

Maximum temperature yesterday: 88 °F (at 10:30 AM)
Minimum temperature yesterday: 77 °F (at 2:30 AM)
Average temperature yesterday: 83 °F

High & Low Weather Summary for the Past Weeks

 TemperatureHumidityPressure
High90 °F (Apr 18, 10:30 AM)94% (Apr 28, 1:00 AM)29.95 "Hg (Apr 28, 1:00 AM)
Low77 °F (Apr 22, 2:30 AM)52% (Apr 30, 11:00 AM)29.77 "Hg (Apr 19, 2:00 AM)
Average84 °F73%29.86 "Hg
* Reported Apr 18 4:00 AM — May 3 4:30 AM, Mutsamudu, Weather by CustomWeather, © 2016

Note: Actual official high and low records may vary slightly from our data, if they occured in-between our weather recording intervals... More about our weather records

Advertising

Mutsamudu Weather History for the Previous 24 Hours

Scroll right to see more
 ConditionsComfort  
Time TempWeatherWind HumidityBarometerVisibility
4:30 AM
Tue, May 3
82 °FPassing clouds.15 mph79%29.86 "HgN/A
4:00 AM82 °FPartly cloudy.13 mph79%29.86 "HgN/A
3:30 AM82 °FPassing clouds.13 mph74%29.86 "HgN/A
3:00 AM82 °FWarm.13 mph74%29.86 "HgN/A
2:30 AM82 °FWarm.12 mph74%29.86 "HgN/A
2:00 AM82 °FWarm.12 mph74%29.86 "HgN/A
1:00 AM82 °FWarm.9 mph74%29.86 "HgN/A
12:30 AM82 °FWarm.9 mph74%29.89 "HgN/A
12:00 AM82 °FWarm.10 mph74%29.89 "HgN/A
11:30 PM
Mon, May 2
82 °FWarm.12 mph74%29.89 "HgN/A
11:00 PM82 °FWarm.10 mph79%29.89 "HgN/A
10:30 PM82 °FWarm.12 mph79%29.89 "HgN/A
10:00 PM82 °FWarm.12 mph79%29.89 "HgN/A
9:30 PM82 °FWarm.10 mph79%29.92 "HgN/A
9:00 PM82 °FWarm.13 mph74%29.92 "HgN/A
8:30 PM82 °FPassing clouds.14 mph79%29.92 "HgN/A
8:00 PM82 °FPassing clouds.16 mph79%29.89 "HgN/A
7:30 PM82 °FPassing clouds.14 mph74%29.89 "HgN/A
7:00 PM82 °FPassing clouds.12 mph79%29.89 "HgN/A
6:30 PM82 °FPassing clouds.15 mph74%29.86 "HgN/A
6:00 PM84 °FPassing clouds.14 mph70%29.86 "HgN/A
5:30 PM84 °FScattered clouds.15 mph66%29.86 "HgN/A
5:00 PM86 °FScattered clouds.15 mph66%29.86 "HgN/A
4:30 PM86 °FPassing clouds.15 mph66%29.86 "HgN/A
4:00 PM86 °FPassing clouds.14 mph66%29.86 "HgN/A
3:30 PM88 °FPassing clouds.14 mph62%29.86 "HgN/A
3:00 PM88 °FPassing clouds.14 mph62%29.86 "HgN/A
2:30 PM88 °FPassing clouds.14 mph62%29.86 "HgN/A
2:00 PM88 °FPassing clouds.13 mph62%29.86 "HgN/A
1:30 PM88 °FPassing clouds.13 mph62%29.86 "HgN/A
1:00 PM88 °FPassing clouds.12 mph62%29.86 "HgN/A
12:30 PM88 °FPassing clouds.12 mph62%29.89 "HgN/A
12:00 PM88 °FPassing clouds.10 mph62%29.89 "HgN/A
11:35 AM88 °FPassing clouds.10 mph62%29.92 "HgN/A
11:00 AM88 °FPassing clouds.10 mph62%29.92 "HgN/A
10:30 AM88 °FPassing clouds.9 mph66%29.92 "HgN/A
10:00 AM86 °FPassing clouds.9 mph66%29.95 "HgN/A
9:36 AM86 °FPassing clouds.9 mph62%29.95 "HgN/A
8:00 AM84 °FPassing clouds.6 mph79%29.92 "HgN/A
7:30 AM82 °FPassing clouds.6 mph84%29.92 "HgN/A
7:00 AM79 °FPassing clouds.6 mph89%29.92 "HgN/A
6:30 AM77 °FPassing clouds.6 mph94%29.92 "HgN/A
Weather by CustomWeather, © 2016

See weather overviewHow to use our weather pages